Temperature
21 21 21 21 18 17 19 19 19 20 20 20 20 19 19 18 18 18 18 18 18 18 18 18 18 18 18 18 18 18 18 18 18 17 18 18 18 18 17 17 17 17 17 17 17 17 17 17 17
21 21 21 20 17 17 19 19 19 20 20 20 20 19 18 18 18 18 18 18 18 18 18 18 18 18 18 18 18 18 18 17 17 17 17 17 17 17 17 17 17 17 17 17 17 17 17 17 17
21 21 21 17 17 18 19 20 20 20 21 20 20 19 19 18 18 18 18 18 18 18 18 18 18 18 18 18 17 18 17 17 17 17 17 17 17 17 17 17 17 17 17 17 17 17 17 17 17
21 21 20 17 19 19 19 20 20 20 21 20 19 19 18 18 19 19 18 18 18 18 18 18 18 18 18 17 17 17 17 17 17 17 17 17 17 17 17 17 17 17 17 17 17 17 17 17 17
21 21 17 18 19 19 19 20 20 20 20 20 19 18 18 18 18 18 18 18 18 18 18 18 18 17 17 17 17 17 17 17 17 17 17 17 17 17 17 17 17 17 17 17 17 17 17 17 17
21 18 17 18 19 20 20 21 21 20 20 20 19 18 18 18 18 18 18 18 18 18 18 18 17 17 17 17 17 17 17 17 17 17 17 17 17 17 17 17 16 16 16 16 16 16 16 16 16
20 17 18 18 19 20 21 21 20 20 20 20 20 18 18 18 18 18 18 18 18 18 18 17 17 17 17 17 17 17 17 17 17 17 17 17 17 17 17 16 16 16 16 16 16 16 16 16 16
21 17 18 18 19 20 21 21 21 20 20 20 20 18 18 18 18 18 18 18 18 18 17 17 17 17 17 17 17 17 17 17 17 17 17 17 17 16 16 16 16 16 16 16 16 16 16 16 16
21 17 18 19 19 20 21 21 21 21 20 20 20 20 19 19 18 18 18 18 18 18 17 17 17 17 17 17 17 17 17 17 17 17 16 16 16 16 16 16 16 16 16 16 16 16 16 16 16
20 17 19 20 19 20 21 21 21 20 20 19 19 19 19 19 18 18 18 18 18 18 17 17 17 17 17 17 17 17 17 17 17 16 16 16 16 16 16 16 16 16 16 16 16 16 16 16 16
20 19 20 20 21 21 21 21 21 20 19 20 20 19 19 19 18 18 18 18 18 18 17 17 17 17 17 17 17 17 17 17 16 16 16 16 16 16 16 16 16 16 16 16 16 15 15 15 15
20 20 20 21 21 21 21 20 20 20 20 21 21 20 19 19 18 18 18 18 18 18 18 17 17 17 17 17 17 17 17 17 16 16 16 16 16 16 16 16 16 16 16 15 15 15 15 15 15
20 20 21 21 21 21 20 20 20 20 20 21 20 20 19 19 19 18 18 18 18 18 17 17 17 17 17 17 17 17 17 16 16 16 16 16 16 16 16 16 15 15 15 15 15 15 15 15 15
20 20 20 21 21 21 20 19 19 19 20 20 20 19 19 19 19 18 18 18 18 18 17 17 17 17 17 17 16 16 16 16 16 16 16 16 15 15 15 15 15 15 15 15 15 15 15 15 15
21 20 20 20 20 20 20 19 19 19 19 19 19 19 19 19 18 18 18 18 18 18 17 17 17 17 17 16 16 16 16 16 16 16 16 15 15 15 15 15 15 15 15 15 15 15 15 15 15
20 19 19 20 20 20 20 19 19 19 19 18 19 19 18 18 18 18 18 18 18 18 17 17 17 17 16 16 16 16 16 16 16 16 15 15 15 15 15 15 15 15 15 15 15 15 15 15 14
18 18 19 19 20 20 19 19 18 19 19 18 18 18 18 18 18 18 18 18 18 18 17 17 17 17 16 16 16 16 16 16 16 15 15 15 15 15 15 15 15 15 14 14 14 14 14 14 14
18 18 19 19 19 19 18 18 18 18 18 18 18 18 18 18 18 18 18 18 18 17 17 17 17 17 16 16 16 16 16 15 15 15 15 15 15 15 15 15 15 14 14 14 14 14 14 14 14
19 19 19 19 19 19 18 18 18 18 17 17 17 18 18 18 18 18 18 18 17 17 17 17 17 16 16 16 16 16 15 15 15 15 15 15 15 15 15 15 15 14 14 14 14 14 14 14 14
19 18 18 19 19 19 18 17 17 17 17 17 17 17 18 18 18 18 18 17 17 17 17 17 16 16 16 16 16 15 15 15 15 15 15 15 15 15 15 15 14 14 14 14 14 14 14 14 13
19 18 19 19 19 18 18 17 17 17 17 17 17 18 18 18 18 18 18 18 17 17 17 17 16 16 16 16 15 15 15 15 15 15 15 15 14 14 14 14 14 14 14 14 14 14 14 14 13
19 19 19 19 18 17 18 16 17 16 16 16 17 17 18 18 18 18 18 18 17 17 17 16 16 16 16 16 15 15 15 15 15 14 14 14 14 14 14 14 14 14 14 14 14 14 13 13 13
19 19 19 18 17 16 16 16 16 16 16 16 16 17 17 18 18 18 18 18 18 17 17 16 16 16 16 16 15 15 15 15 14 14 14 14 14 14 14 14 14 14 14 14 13 13 13 13 13
19 18 17 15 15 16 16 16 16 15 16 16 16 17 17 18 18 18 18 18 17 17 16 16 16 16 16 15 15 15 15 14 14 14 14 14 14 14 14 13 13 13 13 13 13 13 13 13 13
18 17 16 16 15 15 16 16 16 16 16 16 16 17 17 17 18 18 17 17 17 17 16 16 16 16 15 15 15 15 14 14 14 14 14 14 14 13 13 13 13 13 13 13 13 13 13 13 13
18 17 16 16 16 15 16 15 16 16 16 17 17 17 17 17 17 17 17 17 17 16 16 16 16 16 15 15 15 15 14 14 14 14 14 13 13 13 13 13 13 13 13 13 13 13 13 13 12
18 16 16 15 15 15 15 15 16 16 16 15 16 16 16 17 17 17 17 17 16 16 16 16 16 15 15 15 14 14 14 14 14 14 13 13 13 13 13 13 13 13 13 13 13 13 12 12 12
17 15 14 15 15 15 16 15 15 16 16 15 14 15 16 16 17 17 17 16 16 16 16 16 15 15 15 15 14 14 14 14 14 13 13 13 13 13 13 13 13 13 12 13 12 12 12 12 12
17 16 14 13 14 14 15 15 16 16 15 15 14 15 16 16 16 16 17 16 16 16 16 15 15 15 15 14 14 14 14 14 13 13 13 13 13 13 12 12 12 12 12 12 12 12 12 12 12
17 16 14 15 15 13 14 15 16 15 15 15 15 16 16 16 16 16 16 16 16 15 15 15 15 15 15 14 14 14 14 13 13 13 13 13 12 12 12 12 12 12 12 12 12 12 12 12 11
Wind_Speed
3 3 3 4 6 5 3 2 1 1 2 2 3 6 6 4 3 2 1 2 3 3 3 5 5 6 6 6 6 7 7 7 7 7 8 8 8 9 9 9 8 9 9 9 9 9 9 9 9
1 2 4 5 5 4 2 2 1 0 3 4 4 5 6 4 2 3 1 2 3 4 4 4 5 6 6 5 6 6 6 6 6 7 7 8 8 8 9 8 8 8 8 8 8 8 8 8 9
2 3 4 5 4 4 2 1 1 2 3 2 4 4 4 2 2 3 3 4 4 3 4 4 5 5 5 5 5 5 6 6 6 7 7 7 7 8 8 8 8 8 8 8 8 8 8 9 9
4 5 5 6 4 1 2 2 2 2 3 4 4 4 3 2 2 3 5 5 5 3 4 3 4 5 5 4 4 4 5 5 6 6 7 7 7 7 7 7 7 7 8 8 8 8 8 8 8
4 5 6 4 2 1 1 1 2 2 2 3 4 4 2 4 5 7 7 5 5 3 3 3 4 4 4 4 4 4 4 5 6 6 6 6 6 6 7 6 7 7 7 7 8 8 8 8 8
5 5 5 2 1 2 1 1 3 4 3 3 4 4 2 2 4 5 6 4 4 3 2 2 3 3 4 4 4 4 4 5 6 6 6 6 6 6 6 6 6 6 6 7 7 7 7 7 7
5 5 4 3 1 1 0 1 3 4 3 3 4 4 1 1 3 5 5 4 4 3 3 3 3 3 4 4 4 5 5 6 6 6 6 5 5 5 5 5 5 6 7 6 6 6 6 7 7
5 5 3 2 2 1 0 2 2 3 3 3 4 6 4 4 4 5 5 4 4 3 3 3 4 4 4 4 4 5 6 6 7 6 6 5 5 5 5 5 6 6 7 7 7 7 7 8 8
4 5 2 3 4 2 1 2 2 2 4 3 2 3 3 8 8 7 5 4 3 2 2 2 3 3 4 4 4 5 6 6 6 6 6 6 6 6 6 6 6 6 6 7 8 8 9 9 8
5 3 4 4 4 3 2 2 2 3 3 3 3 4 7 8 8 7 5 4 2 1 1 1 2 3 3 3 5 5 5 6 6 6 7 6 6 6 6 7 7 8 7 8 9 9 8 8 7
3 4 2 1 3 4 3 2 2 5 2 4 6 7 8 8 7 7 5 4 3 2 1 1 2 3 3 3 4 4 4 5 5 6 6 6 6 6 6 6 6 7 8 7 8 8 7 6 5
3 1 2 1 2 3 3 3 3 3 3 3 6 9 9 8 7 6 5 4 3 3 2 1 2 3 3 3 3 3 3 3 3 3 4 5 4 4 5 4 5 6 5 6 6 5 6 6 6
2 0 1 2 3 4 4 3 2 1 1 5 8 9 9 8 6 4 4 3 3 3 2 2 2 2 2 3 2 3 2 2 2 3 3 4 3 2 3 3 4 5 5 5 4 4 5 5 5
1 2 2 2 3 2 4 2 2 1 4 7 8 8 7 7 6 4 3 4 3 3 3 3 3 2 3 2 2 2 2 2 2 2 2 3 3 3 3 2 3 4 4 4 4 4 4 4 4
2 3 4 2 1 2 5 2 1 2 6 6 6 6 5 4 5 5 5 5 4 3 3 3 3 3 3 2 2 2 2 2 2 2 2 3 4 3 3 2 2 3 4 5 5 5 4 4 4
4 4 1 3 1 2 5 3 3 3 7 6 5 4 4 3 4 4 3 4 4 4 3 3 3 3 3 2 2 2 3 3 2 2 2 3 4 4 4 2 2 3 4 4 3 3 4 4 4
3 1 1 3 1 3 4 3 3 3 7 6 5 4 4 3 3 3 3 4 4 4 4 3 3 3 3 2 2 3 3 3 2 3 3 3 3 4 4 3 2 4 4 3 3 3 3 4 4
3 2 2 2 1 4 3 4 3 3 6 6 5 4 4 5 6 4 4 4 4 4 4 4 3 3 3 3 3 3 3 3 3 3 3 3 3 4 4 3 3 4 3 2 3 3 3 3 3
4 4 2 3 2 3 4 4 4 3 4 5 5 5 6 6 4 2 3 3 4 3 4 3 3 3 3 2 2 2 1 1 2 2 2 3 3 4 4 3 2 3 2 2 3 3 4 3 2
4 3 2 2 1 2 2 3 3 3 5 6 6 6 6 5 3 3 3 3 3 4 3 3 3 3 3 2 2 2 2 1 1 2 3 3 3 3 3 3 2 2 3 3 3 3 2 1 2
3 5 5 3 1 3 1 4 3 3 2 3 4 5 5 7 7 5 4 4 3 3 4 3 3 3 3 3 3 3 3 3 2 2 2 2 2 3 3 3 3 2 3 3 2 2 3 2 1
4 5 5 4 2 2 1 3 6 3 3 4 5 5 6 6 6 5 5 5 5 5 3 3 3 3 3 4 5 4 3 1 1 0 0 1 2 3 3 3 3 2 2 2 2 2 2 2 1
5 2 3 2 3 1 1 1 7 2 4 7 6 6 6 7 7 6 6 6 5 4 4 3 3 3 3 4 5 5 3 1 1 1 1 1 1 2 2 2 3 2 2 2 2 2 2 2 2
4 6 6 5 4 1 3 3 6 3 6 5 5 5 5 5 5 5 4 3 2 2 2 3 4 3 3 4 4 5 4 3 2 1 1 1 1 1 2 2 2 2 2 2 2 2 2 2 2
5 5 3 3 2 4 2 3 6 6 5 5 6 5 4 4 4 4 4 3 3 3 3 3 4 3 3 4 4 4 4 4 4 3 2 1 0 1 1 0 1 1 1 2 2 2 2 2 2
4 7 6 4 4 4 1 4 6 4 3 1 2 3 3 3 4 4 5 5 5 4 4 4 4 4 4 4 3 3 3 3 2 2 2 2 1 1 1 0 0 0 1 2 2 2 2 2 2
5 3 6 6 2 1 4 5 6 3 3 3 1 1 3 3 4 4 4 4 4 4 5 5 4 4 4 4 4 3 3 3 3 2 2 2 1 1 0 0 0 1 1 1 2 2 2 2 2
4 8 5 5 4 3 4 4 4 4 4 2 1 2 3 2 2 3 3 3 3 3 3 3 3 4 3 4 4 3 3 2 2 2 2 2 1 1 1 1 1 0 1 1 2 2 2 2 2
3 4 5 4 5 5 3 6 5 7 5 4 4 3 4 4 4 3 2 2 3 3 2 2 2 3 2 2 2 3 3 2 2 2 2 2 2 1 1 1 1 1 1 1 2 2 2 2 2
3 5 6 4 3 4 4 6 4 4 3 3 3 2 2 2 2 1 1 2 2 2 2 2 2 3 2 2 2 2 2 2 2 2 2 2 2 2 1 1 1 1 1 1 2 2 2 3 3
Wind_Direction
350 73 81 58 55 53 49 337 320 23 56 39 62 78 90 82 88 124 264 138 141 135 137 133 124 117 106 98 93 91 94 92 91 91 92 94 97 97 96 94 93 91 90 88 85 84 83 80 80
63 83 59 59 78 73 1 323 17 95 145 139 73 72 75 67 78 114 123 157 141 137 132 134 129 116 107 100 95 90 88 90 90 94 93 94 95 95 95 92 89 89 88 88 89 86 85 83 81
103 57 75 67 86 136 160 252 110 65 106 92 69 57 78 87 117 153 175 147 129 127 125 135 131 119 110 103 98 91 87 85 86 90 94 96 94 92 92 92 90 86 84 83 85 82 80 81 79
82 48 55 67 75 217 188 195 141 102 58 49 87 67 54 35 135 142 132 131 125 119 116 125 131 123 114 104 95 92 90 88 87 91 93 93 94 94 93 92 90 87 84 84 83 79 78 77 76
59 73 63 58 34 320 262 195 134 109 76 60 86 91 49 7 83 112 124 130 133 127 111 116 125 116 101 93 88 90 96 95 93 94 92 90 89 89 88 89 89 87 85 85 82 77 76 75 75
60 70 86 94 357 340 352 100 114 104 96 92 97 102 59 41 105 127 126 125 127 127 113 107 106 87 73 65 68 79 87 92 89 89 89 88 84 82 81 81 83 82 83 83 78 77 75 75 73
102 96 123 140 124 358 94 97 118 121 117 144 131 106 88 105 138 132 122 114 106 98 86 74 72 71 70 65 71 76 81 83 82 79 79 81 79 81 78 74 77 76 81 83 80 74 72 72 70
117 103 99 127 143 227 196 98 102 120 126 118 121 137 182 190 141 115 105 94 88 79 70 61 63 63 59 57 71 81 82 81 78 71 68 72 64 65 65 67 69 72 77 77 72 72 67 66 66
90 80 134 181 168 200 155 105 70 75 97 77 77 150 155 130 120 110 98 79 78 81 66 67 62 61 67 63 68 70 71 70 66 60 60 59 54 51 53 60 64 67 74 72 69 66 60 58 57
87 122 202 202 178 165 140 129 132 94 77 79 70 75 103 118 129 130 133 137 132 111 67 78 78 74 75 72 67 61 63 64 61 60 59 58 56 52 52 51 55 61 68 68 64 60 55 51 45
122 162 190 197 178 149 136 122 117 126 140 187 167 147 131 134 141 146 152 156 164 155 129 103 102 88 86 72 73 65 68 70 69 69 69 65 61 55 49 45 43 49 56 56 56 53 51 51 50
123 180 168 175 145 131 139 128 103 146 206 180 156 146 142 147 160 166 166 165 146 132 135 97 92 89 86 86 82 77 75 75 71 69 76 77 66 58 53 51 45 48 52 54 52 55 52 52 52
106 110 51 125 107 117 100 98 117 89 101 107 122 133 145 156 165 172 169 154 139 142 141 131 108 95 84 83 77 78 75 79 80 78 79 89 85 68 63 54 50 51 56 60 55 56 56 53 51
140 96 56 80 103 115 118 83 96 233 117 115 130 148 163 165 163 156 159 154 155 156 153 136 119 112 98 88 85 71 71 76 85 84 89 99 101 97 85 59 53 54 61 64 67 65 67 60 58
80 65 21 11 98 142 113 53 240 190 125 128 147 156 158 164 156 171 183 171 165 162 146 149 144 124 113 105 93 78 75 84 84 81 89 108 116 112 105 88 63 57 67 70 71 66 66 64 58
56 63 18 308 108 137 129 227 260 171 140 151 163 163 163 177 180 192 183 169 152 144 142 151 141 129 124 116 99 75 69 74 68 74 79 101 118 118 106 96 80 78 78 75 82 68 70 61 57
42 105 231 297 219 135 146 219 256 163 155 173 182 180 176 185 205 213 187 170 153 151 146 138 128 132 132 120 94 83 77 71 64 70 76 90 108 118 113 105 98 95 85 75 85 71 79 78 69
204 193 225 251 266 132 164 225 247 189 177 189 192 195 194 199 219 213 185 164 150 149 144 137 135 133 121 101 81 68 62 51 56 64 70 89 105 119 116 109 99 100 97 79 81 84 69 79 82
169 167 220 253 230 157 203 235 254 226 196 203 206 205 204 212 219 188 163 152 145 142 139 143 143 145 131 118 109 92 75 45 38 44 58 80 98 115 116 112 102 103 111 110 106 102 85 68 72
155 168 234 295 5 147 221 270 272 221 215 211 208 212 209 206 200 190 173 171 171 167 172 165 164 160 160 152 138 126 122 89 62 36 48 63 82 100 123 125 128 120 118 102 105 114 108 80 60
191 188 209 214 28 50 58 322 291 269 238 220 215 215 212 205 201 199 190 193 191 194 197 191 183 167 159 139 109 85 67 51 40 25 23 29 67 83 101 123 129 127 134 143 140 131 126 132 54
230 226 195 174 122 291 117 279 286 265 266 241 228 216 218 213 201 196 195 199 206 211 200 182 170 159 151 140 137 133 131 144 217 230 315 31 58 68 83 116 123 129 132 142 156 133 125 129 123
210 167 146 151 141 45 2 198 285 294 259 250 233 219 221 213 200 195 197 201 203 196 188 180 158 152 150 148 149 143 135 144 128 88 79 52 37 55 74 108 120 132 138 148 146 131 127 130 138
135 79 65 54 80 265 241 189 280 255 243 253 232 222 215 208 199 196 194 184 185 170 166 163 157 160 156 153 154 155 153 145 131 119 113 42 14 16 45 95 112 140 148 161 168 159 147 141 128
93 95 45 4 4 253 256 201 252 269 264 237 221 216 209 196 188 189 185 182 187 182 175 167 164 174 174 163 163 169 168 166 169 174 179 178 8 326 316 61 107 149 163 164 153 151 159 152 144
163 144 159 198 223 266 282 234 259 288 305 253 193 186 176 185 192 195 195 190 190 189 182 179 179 184 177 167 169 170 168 170 179 184 183 195 208 230 250 183 119 139 147 159 147 155 176 157 161
141 157 161 138 146 230 276 289 305 331 8 36 63 145 185 198 202 200 194 187 187 187 188 187 182 180 184 178 167 169 170 169 177 179 172 190 202 204 197 163 142 111 143 143 149 164 178 161 169
136 143 110 127 155 240 282 275 258 274 278 296 286 235 221 207 219 211 195 189 187 186 181 166 164 172 175 169 168 169 177 181 170 159 172 181 186 162 130 143 158 141 125 122 135 163 173 157 170
101 106 112 124 152 166 236 265 226 218 225 234 241 235 213 195 211 217 203 185 172 160 155 153 156 147 151 162 164 164 172 169 153 164 190 191 185 168 159 164 167 169 158 153 150 185 170 160 169
161 163 148 156 206 181 190 261 275 223 231 219 238 250 227 195 195 191 176 143 142 154 156 163 177 173 182 172 157 166 170 153 160 190 205 187 182 182 178 151 147 162 152 168 177 190 174 176 189
Height
1498 1498 1498 1500 1503 1515 1519 1514 1510 1509 1508 1508 1507 1508 1510 1513 1516 1521 1518 1515 1516 1516 1516 1516 1516 1517 1517 1517 1517 1517 1517 1517 1517 1517 1517 1517 1517 1517 1517 1517 1518 1518 1518 1518 1519 1519 1519 1520 1520
1498 1498 1500 1501 1512 1526 1522 1513 1511 1509 1509 1509 1509 1510 1511 1513 1514 1516 1516 1516 1517 1517 1517 1518 1518 1518 1518 1518 1518 1518 1518 1518 1518 1518 1518 1518 1519 1519 1519 1519 1519 1519 1520 1520 1520 1520 1520 1521 1521
1499 1499 1501 1505 1516 1524 1520 1512 1510 1509 1509 1510 1511 1512 1513 1515 1516 1516 1517 1517 1518 1518 1519 1519 1519 1520 1520 1520 1520 1520 1520 1520 1520 1520 1519 1520 1520 1520 1520 1520 1520 1521 1521 1521 1521 1521 1522 1522 1522
1499 1501 1503 1512 1518 1515 1513 1510 1509 1509 1510 1511 1511 1514 1515 1517 1517 1518 1518 1518 1519 1520 1520 1520 1521 1521 1521 1521 1521 1521 1521 1521 1521 1521 1521 1521 1521 1521 1521 1521 1522 1522 1522 1522 1522 1522 1523 1523 1523
1500 1502 1510 1518 1517 1513 1510 1509 1509 1509 1511 1512 1513 1515 1517 1518 1518 1519 1519 1520 1520 1521 1522 1522 1522 1522 1523 1522 1522 1522 1522 1522 1522 1522 1522 1522 1522 1522 1522 1523 1523 1523 1523 1523 1523 1523 1524 1524 1524
1502 1504 1519 1524 1518 1512 1510 1510 1510 1511 1512 1513 1514 1516 1518 1519 1519 1520 1520 1521 1522 1522 1523 1523 1523 1524 1524 1524 1523 1523 1523 1523 1523 1523 1523 1523 1523 1523 1523 1524 1524 1524 1524 1524 1524 1524 1525 1525 1525
1503 1510 1518 1519 1519 1515 1511 1510 1511 1511 1513 1514 1514 1516 1518 1520 1520 1521 1522 1523 1523 1524 1524 1524 1524 1524 1525 1525 1524 1524 1524 1524 1524 1524 1524 1524 1524 1524 1524 1525 1525 1525 1525 1525 1525 1525 1525 1525 1526
1503 1509 1517 1519 1518 1515 1511 1511 1512 1512 1513 1515 1515 1516 1518 1520 1521 1522 1523 1524 1524 1525 1525 1525 1526 1526 1526 1526 1526 1525 1525 1525 1525 1525 1525 1525 1525 1525 1525 1526 1526 1526 1526 1526 1526 1526 1526 1526 1526
1504 1514 1520 1517 1516 1513 1510 1511 1512 1513 1514 1515 1516 1517 1518 1520 1521 1523 1523 1524 1525 1526 1526 1526 1527 1527 1527 1527 1527 1527 1527 1527 1527 1526 1526 1526 1526 1526 1526 1527 1527 1527 1527 1527 1527 1527 1527 1527 1527
1504 1516 1514 1510 1509 1510 1510 1511 1512 1514 1515 1516 1516 1517 1518 1520 1521 1523 1523 1524 1525 1526 1527 1527 1528 1528 1528 1528 1528 1528 1528 1528 1527 1527 1527 1527 1527 1527 1527 1527 1527 1527 1527 1527 1527 1528 1528 1528 1528
1505 1510 1508 1507 1507 1508 1510 1511 1512 1513 1516 1516 1516 1517 1519 1521 1522 1523 1524 1525 1526 1527 1528 1528 1528 1529 1529 1529 1529 1529 1529 1529 1528 1528 1528 1528 1528 1528 1528 1528 1528 1528 1528 1528 1528 1528 1528 1529 1529
1506 1507 1507 1507 1507 1509 1510 1511 1513 1514 1515 1515 1516 1517 1519 1520 1522 1523 1524 1526 1527 1528 1529 1529 1530 1530 1530 1530 1530 1530 1530 1530 1530 1529 1529 1529 1529 1529 1529 1529 1529 1528 1529 1529 1529 1529 1529 1530 1529
1506 1507 1507 1507 1508 1509 1511 1512 1513 1514 1515 1515 1516 1518 1519 1521 1522 1524 1525 1527 1528 1528 1529 1530 1530 1530 1531 1531 1531 1531 1531 1531 1531 1530 1530 1530 1530 1530 1530 1530 1530 1530 1530 1530 1530 1530 1530 1530 1530
1506 1507 1507 1508 1509 1510 1512 1514 1514 1515 1515 1515 1516 1518 1519 1521 1523 1524 1526 1527 1527 1528 1529 1530 1530 1531 1531 1531 1531 1531 1531 1531 1531 1531 1531 1531 1531 1531 1531 1531 1530 1530 1530 1530 1530 1530 1530 1530 1530
1507 1509 1510 1509 1509 1511 1512 1517 1515 1515 1515 1516 1517 1518 1520 1521 1523 1524 1525 1526 1528 1529 1530 1530 1531 1531 1531 1531 1531 1531 1531 1532 1531 1532 1532 1532 1532 1532 1532 1531 1531 1531 1531 1531 1531 1531 1530 1530 1530
1508 1513 1518 1512 1510 1511 1516 1522 1515 1515 1515 1516 1517 1519 1520 1521 1523 1524 1526 1527 1528 1529 1529 1530 1531 1531 1531 1532 1532 1532 1532 1532 1532 1532 1532 1532 1532 1532 1532 1532 1532 1531 1531 1531 1531 1531 1531 1531 1530
1516 1522 1521 1516 1511 1511 1515 1520 1515 1515 1515 1516 1517 1518 1520 1521 1522 1524 1525 1526 1527 1528 1529 1530 1530 1531 1531 1531 1532 1532 1532 1532 1532 1532 1532 1532 1532 1533 1533 1532 1532 1532 1532 1531 1531 1531 1531 1531 1531
1522 1522 1520 1519 1513 1513 1516 1517 1514 1514 1515 1515 1517 1518 1519 1520 1521 1523 1524 1526 1527 1528 1529 1529 1530 1530 1531 1531 1531 1532 1532 1532 1532 1532 1532 1532 1532 1532 1533 1532 1532 1532 1532 1532 1531 1531 1531 1531 1531
1513 1517 1520 1517 1512 1514 1517 1517 1515 1513 1515 1515 1515 1516 1517 1518 1520 1522 1523 1525 1526 1527 1528 1528 1529 1529 1530 1530 1530 1531 1531 1531 1532 1532 1532 1532 1532 1532 1532 1532 1532 1532 1532 1531 1531 1531 1531 1531 1531
1512 1518 1519 1515 1511 1514 1517 1517 1514 1513 1513 1513 1514 1515 1516 1517 1519 1520 1522 1523 1524 1525 1526 1527 1528 1528 1529 1529 1530 1530 1531 1531 1531 1532 1532 1532 1532 1532 1532 1532 1531 1531 1531 1531 1531 1531 1531 1531 1532
1512 1516 1516 1517 1514 1515 1518 1521 1516 1512 1512 1512 1512 1513 1514 1515 1516 1518 1520 1521 1523 1524 1525 1526 1527 1527 1528 1528 1529 1530 1530 1530 1531 1531 1531 1531 1531 1531 1531 1531 1531 1531 1531 1531 1531 1530 1530 1531 1531
1514 1508 1509 1513 1520 1526 1522 1534 1519 1513 1512 1510 1510 1510 1511 1513 1514 1516 1518 1519 1521 1522 1524 1525 1525 1526 1527 1527 1528 1528 1528 1529 1529 1529 1530 1530 1530 1530 1530 1530 1530 1530 1530 1530 1530 1530 1530 1530 1530
1507 1504 1509 1513 1520 1527 1526 1532 1525 1514 1513 1509 1507 1508 1509 1510 1512 1514 1516 1517 1519 1520 1522 1523 1524 1525 1526 1526 1527 1527 1527 1528 1528 1528 1529 1529 1529 1529 1529 1528 1529 1529 1529 1529 1529 1529 1529 1530 1530
1503 1509 1515 1521 1526 1535 1528 1532 1528 1518 1511 1506 1505 1505 1506 1508 1510 1512 1514 1516 1517 1519 1520 1521 1522 1523 1524 1525 1525 1526 1526 1526 1527 1527 1527 1527 1527 1527 1527 1527 1527 1527 1528 1528 1528 1528 1529 1529 1529
1505 1519 1533 1536 1542 1538 1526 1528 1524 1509 1505 1503 1502 1503 1504 1506 1508 1510 1512 1513 1515 1516 1518 1519 1520 1521 1522 1523 1523 1524 1525 1525 1525 1525 1525 1525 1525 1525 1526 1526 1526 1526 1526 1527 1527 1527 1528 1528 1528
1506 1513 1532 1540 1543 1537 1527 1528 1516 1505 1502 1501 1501 1502 1503 1505 1507 1508 1510 1511 1513 1514 1515 1517 1518 1519 1520 1521 1522 1523 1523 1523 1524 1524 1524 1524 1524 1524 1524 1524 1524 1525 1525 1525 1526 1526 1526 1527 1527
1506 1513 1514 1528 1532 1537 1532 1523 1511 1504 1502 1501 1501 1501 1502 1504 1505 1507 1508 1510 1511 1512 1514 1515 1516 1517 1518 1519 1520 1521 1521 1522 1522 1522 1522 1522 1522 1523 1523 1523 1523 1523 1523 1523 1524 1524 1524 1525 1525
1501 1508 1519 1527 1537 1540 1532 1527 1521 1508 1505 1503 1502 1501 1502 1503 1505 1506 1507 1508 1510 1511 1512 1513 1514 1515 1516 1517 1518 1519 1519 1520 1520 1521 1521 1521 1521 1521 1521 1521 1521 1521 1521 1521 1522 1522 1522 1523 1523
1505 1510 1516 1525 1528 1537 1538 1529 1506 1503 1502 1502 1501 1501 1501 1502 1504 1505 1506 1507 1508 1510 1511 1512 1513 1514 1515 1515 1516 1517 1517 1518 1518 1519 1519 1519 1519 1520 1520 1520 1520 1520 1520 1520 1520 1520 1520 1521 1521
1500 1505 1513 1522 1526 1529 1533 1526 1499 1499 1499 1500 1500 1500 1501 1502 1503 1503 1505 1505 1506 1508 1509 1510 1511 1512 1513 1514 1515 1515 1516 1516 1516 1517 1517 1517 1518 1518 1518 1518 1518 1518 1518 1517 1518 1518 1518 1518 1519